Flag for U.S.A. Weather past 2 weeks in New Orleans, Louisiana, U.S.A.

Now
91 °F

Scattered clouds.


Feels Like: 101 °F
Forecast: 78 / 92 °F
Wind: 10 mph from Southeast

Location: Lakefront Airport

Current Time: Jul 7, 2015 at 11:28:47 AM

Latest Report: Jul 7, 2015 at 10:53 AM


Visibility: 10 mi

Pressure: 30.11 "Hg

Humidity: 57%

Dew point: 74 °F

Location of New OrleansLocation

Historic Weather in New Orleans — Graph

°F

New Orleans temperature yesterday

Maximum temperature yesterday: 92 °F (at 2:53 PM)
Minimum temperature yesterday: 77 °F (at 12:53 AM)
Average temperature yesterday: 85 °F

Past Weeks' High & Low Weather Summary

 TemperatureHumidityPressure
High96 °F (Jun 30, 2:53 PM)85% (Jun 29, 2:53 AM)30.17 "Hg (Jun 29, 2:53 AM)
Low75 °F (Jul 5, 9:53 PM)42% (Jul 2, 4:53 PM)29.92 "Hg (Jun 27, 6:53 PM)
Average85 °F68%30.05 "Hg
* Reported Jun 22 9:53 AM — Jul 7 9:53 AM, New Orleans, Weather by CustomWeather, © 2015

Note: Actual official high and low records may vary slightly from our data, if they occured in-between our weather recording intervals... More about our weather records

Advertising

New Orleans weather history for previous 24 hours

 ConditionsComfort  
Time TempWeatherWind HumidityBarometerVisibility
9:53 AM
Tue, Jul 7
89 °FPassing clouds.12 mph63%30.12 "Hg10 mi
8:53 AM88 °FPassing clouds.12 mph65%30.11 "Hg10 mi
7:53 AM86 °FSunny.9 mph72%30.11 "Hg10 mi
6:53 AM83 °FClear.5 mph79%30.10 "Hg10 mi
5:53 AM82 °FClear.5 mph82%30.09 "Hg10 mi
4:53 AM83 °FClear.5 mph79%30.09 "Hg10 mi
3:53 AM82 °FClear.5 mph82%30.09 "Hg10 mi
2:53 AM83 °FClear.7 mph79%30.09 "Hg10 mi
1:53 AM83 °FClear.6 mph79%30.10 "Hg10 mi
12:53 AM84 °FClear.6 mph77%30.09 "Hg10 mi
11:53 PM
Mon, Jul 6
85 °FClear.8 mph75%30.09 "Hg10 mi
10:53 PM85 °FClear.10 mph75%30.07 "Hg10 mi
9:53 PM86 °FClear.9 mph72%30.04 "Hg10 mi
8:53 PM87 °FSunny.10 mph69%30.03 "Hg10 mi
7:53 PM88 °FSunny.10 mph67%30.04 "Hg10 mi
6:53 PM90 °FPartly sunny.14 mph61%30.05 "Hg10 mi
5:53 PM92 °FPartly sunny.9 mph60%30.07 "Hg10 mi
4:53 PM92 °FSunny.7 mph60%30.09 "Hg10 mi
3:53 PM92 °FPartly sunny.8 mph62%30.09 "Hg10 mi
2:53 PM92 °FPassing clouds.9 mph62%30.11 "Hg10 mi
1:53 PM91 °FPartly sunny.8 mph61%30.12 "Hg10 mi
12:53 PM90 °FBroken clouds.6 mph61%30.14 "Hg10 mi
11:53 AM89 °FPartly sunny.7 mph63%30.15 "Hg10 mi
Weather by CustomWeather, © 2015

See weather overviewHow to use our weather pages